This is the latest recevied weather packets stored in our database for station/object IU1OLT-5. If no packets are shown the sender has not sent any weather packets the latest 10 day(s).
| Time | Temp. | Humidity | Pressure | Rain* | Wind** | Luminosity | Snow |
|---|---|---|---|---|---|---|---|
| 1777811215 | 18.33° C | 70% | 1020.9 hPa | 0 mm | - | 395 W/m² | - |
| 1777810315 | 17.78° C | 72% | 1021.1 hPa | 0 mm | - | 438 W/m² | - |
| 1777809415 | 18.89° C | 72% | 1021.2 hPa | 0 mm | - | 647 W/m² | - |
| 1777808514 | 17.78° C | 73% | 1021 hPa | 0 mm | - | 758 W/m² | - |
| 1777807614 | 18.33° C | 68% | 1020.9 hPa | 0 mm | - | 753 W/m² | - |
| 1777806714 | 17.78° C | 69% | 1020.9 hPa | 0 mm | - | 758 W/m² | - |
| 1777805813 | 17.78° C | 69% | 1021 hPa | 0 mm | - | 641 W/m² | - |
| 1777804913 | 17.22° C | 72% | 1021 hPa | 0 mm | - | 474 W/m² | - |
| 1777804013 | 16.11° C | 75% | 1021.1 hPa | 0 mm | - | 468 W/m² | - |
| 1777803112 | 16.67° C | 76% | 1021.1 hPa | 0 mm | - | 448 W/m² | - |
| 1777802212 | 16.67° C | 76% | 1020.8 hPa | 0 mm | - | 392 W/m² | - |
| 1777801311 | 16.67° C | 78% | 1021 hPa | 0 mm | - | 470 W/m² | - |
| 1777800411 | 17.22° C | 76% | 1021.1 hPa | 0 mm | - | 548 W/m² | - |
| 1777799511 | 16.67° C | 74% | 1021 hPa | 0 mm | - | 405 W/m² | - |
| 1777798610 | 16.11° C | 70% | 1020.8 hPa | 0 mm | - | 331 W/m² | - |
| 1777797710 | 17.22° C | 69% | 1020.5 hPa | 0 mm | - | 384 W/m² | - |
| 1777796810 | 17.22° C | 67% | 1020.5 hPa | 0 mm | - | 437 W/m² | - |
| 1777795909 | 17.22° C | 66% | 1020.7 hPa | 0 mm | - | 481 W/m² | - |
| 1777795009 | 16.11° C | 64% | 1020.6 hPa | 0 mm | - | 432 W/m² | - |
| 1777794108 | 18.89° C | 59% | 1020.6 hPa | 0 mm | - | 392 W/m² | - |
| 1777793208 | 17.22° C | 59% | 1020.6 hPa | 0 mm | - | 389 W/m² | - |
| 1777792308 | 17.22° C | 58% | 1020.7 hPa | 0 mm | - | 331 W/m² | - |
| 1777791407 | 15° C | 59% | 1020.6 hPa | 0 mm | - | 297 W/m² | - |
| 1777790507 | 15° C | 59% | 1020.8 hPa | 0 mm | - | 228 W/m² | - |
| 1777789607 | 15° C | 58% | 1020.9 hPa | 0 mm | - | 158 W/m² | - |
* Rain latest hour (hover to see other rain measurements)
** Current wind speed in m/s (hover to see current wind gust speed)